Content
SEND FEEDBACK

Daily
Averages
Monthly
Summary
United States of America

SOLEDAD, CALIFORNIA


Home > North America > United States > California
Elevation: 200 feet     Latitude: 36 26N     Longitude: 121 19W

WEATHER
 
SELECT A DAY
Number of Records: 199,467;   Date Range: 1/1/95 - 8/12/14
 
SHARE

PRINT THIS DATA

[ ← Previous Day ]
WEATHER ALMANAC - FEBRUARY 4, 2013
[ Next Day → ]
[ °C ]   °F
Weather ElementAverageHighLow
Temperature44.8 °F63 °F (1:53 pm)35.6 °F (5:24 am)
Dewpoint41.9 °F48 °F (8:53 pm)35.1 °F (3:53 am)
Humidity90.6 %100 % (5:24 am)50 % (1:53 pm)
Barometer30.15 in30.22 in (9:53 am)30.08 in (7:50 pm)
Wind Speed5.8 mph11.5 mph (2:53 pm)
Weather ElementAverage
Visibility4.9 mi
Wind DirectionSSE (155 °)

Weather ElementTotal
Precipitation---
Heating Degree Days15.7 (Base 65)
Averaged from 38 records on February 4, 2013
WEATHER CONDITIONS BREAKOUT
WIND DIRECTION BREAKOUT
WEATHER BY HOUR - FEBRUARY 4, 2013
[ °C ]   °F
Local TimeTemperatureDewpointHumidityBarometerVisibilityWind DirectionWind SpeedGust SpeedPrecipitationEventsConditions
3:53 AM37.9 °F35.1 °F89 %30.17 in6.0 miCalmClear
4:53 AM37.9 °F36.0 °F93 %30.16 in6.0 miSE (130°)6.9 mphClear
5:24 AM35.6 °F35.6 °F100 %30.13 in2.5 miESE (120°)9.2 mphScattered Clouds
5:27 AM35.6 °F35.6 °F100 %30.13 in1.5 miESE (110°)9.2 mphMostly Cloudy
5:37 AM37.4 °F35.6 °F93 %30.13 in0.5 miEast (90°)4.6 mphFogFog
5:53 AM37.0 °F37.0 °F100 %30.17 in0.5 miCalmFogFog
6:16 AM37.4 °F35.6 °F93 %30.14 in1.5 miESE (120°)10.4 mphOvercast
6:28 AM37.4 °F37.4 °F100 %30.14 in3.0 miESE (110°)9.2 mphOvercast
6:33 AM37.4 °F37.4 °F100 %30.14 in1.8 miESE (120°)10.4 mphOvercast
6:45 AM37.4 °F37.4 °F100 %30.14 in0.5 miESE (110°)6.9 mphFogFog
6:53 AM37.9 °F37.0 °F97 %30.18 in0.2 miEast (100°)8.1 mphFogFog
7:53 AM39.0 °F39.0 °F100 %30.20 in0.2 miEast (80°)4.6 mphFogFog
8:28 AM37.4 °F37.4 °F100 %30.18 in0.8 miEast (100°)4.6 mphOvercast
8:35 AM39.2 °F39.2 °F100 %30.18 in1.0 miEast (100°)4.6 mphOvercast
8:53 AM39.9 °F39.9 °F100 %30.21 in0.8 miEast (100°)5.8 mphOvercast
9:07 AM41.0 °F41.0 °F100 %30.18 in2.0 miEast (100°)4.6 mphOvercast
9:17 AM41.0 °F41.0 °F100 %30.18 in3.0 miESE (120°)6.9 mphOvercast
9:21 AM41.0 °F41.0 °F100 %30.18 in1.8 miESE (120°)6.9 mphOvercast
9:30 AM42.8 °F42.8 °F100 %30.18 in3.0 miEast (100°)3.5 mphOvercast
9:53 AM44.1 °F42.1 °F93 %30.22 in6.0 miCalmMostly Cloudy
10:03 AM44.6 °F42.8 °F93 %30.18 in6.0 miCalmPartly Cloudy
10:53 AM46.9 °F42.1 °F83 %30.20 in6.0 miNNW (330°)5.8 mphHaze
11:53 AM53.1 °F44.1 °F71 %30.17 in8.0 miCalmClear
12:53 PM60.1 °F46.0 °F60 %30.13 in9.0 miCalmClear
1:53 PM63.0 °F44.1 °F50 %30.11 in10.0 miWest (270°)8.1 mphClear
2:53 PM55.9 °F46.9 °F72 %30.10 in9.0 miWest (280°)11.5 mphClear
3:53 PM55.0 °F46.9 °F74 %30.11 in10.0 miWest (260°)9.2 mphClear
4:53 PM53.1 °F46.9 °F80 %30.10 in10.0 miWest (270°)10.4 mphClear
5:53 PM51.1 °F46.9 °F86 %30.10 in9.0 miWest (280°)8.1 mphClear
6:53 PM50.0 °F46.9 °F89 %30.10 in9.0 miWest (270°)4.6 mphClear
7:50 PM48.2 °F46.4 °F93 %30.08 in8.0 miWNW (290°)5.8 mphScattered Clouds
7:53 PM48.9 °F46.0 °F90 %30.11 in8.0 miWNW (290°)5.8 mphMostly Cloudy
8:19 PM48.2 °F46.4 °F93 %30.09 in5.0 miWest (270°)5.8 mphOvercast
8:53 PM50.0 °F48.0 °F93 %30.13 in6.0 miWest (270°)4.6 mphOvercast
9:13 PM50.0 °F46.4 °F87 %30.10 in8.0 miWSW (250°)6.9 mphOvercast
9:53 PM50.0 °F48.0 °F93 %30.14 in8.0 miWSW (250°)4.6 mphOvercast
10:53 PM50.0 °F46.9 °F89 %30.13 in8.0 miSW (230°)6.9 mphOvercast
11:53 PM50.0 °F46.9 °F89 %30.14 in8.0 miWSW (250°)5.8 mphOvercast
Hourly data recorded from KSNS, located miles away from Soledad, California







STORIES FROM OUR PARTNERS